Regional Weather Roundup
Issued by NWS

Home | Current Version | Previous Version | Graphics & Text | Print | Product List | Glossary On
Versions: 1 2 3 4 5 6 7 8 9 10 11 12 13 14 15 16 17 18 19 20 21 22 23 24 25 26 27
000
ASUS45 KSLC 292310
RWRUT

UTAH REGIONAL WEATHER ROUNDUP
NATIONAL WEATHER SERVICE SALT LAKE CITY UT
500 PM MDT MON MAY 29 2017

UTZ001>011-023>025-300000-

NORTHERN UTAH

CITY           SKY/WX    TMP DP  RH WIND       PRES   REMARKS
BRIGHAM CITY   SUNNY     81  29  15 NW9       30.06F
HILL AFB       SUNNY     77  36  22 NW5       30.09F
LOGAN          SUNNY     80  39  23 N10       30.08F
OGDEN          SUNNY     80  35  19 NW13      30.06F
SALT LAKE CITY MOSUNNY   84  36  18 N7        30.04F
TOOELE VALLEY  SUNNY     77  39  25 N9        30.07F
WENDOVER       SUNNY     80  29  15 SE9       30.07F
HEBER CITY     MOSUNNY   81  21  11 W5        30.10S
WEST JORDAN    SUNNY     79  50  35 N12       30.08F

$$

UTZ011>015-024>027-300000-

CENTRAL/NORTHEAST UTAH

CITY           SKY/WX    TMP DP  RH WIND       PRES   REMARKS
PROVO AIRPORT  NOT AVBL
MOAB/CANYONLAN SUNNY     85  15   7 E6        30.01F
DELTA          SUNNY     79  19  11 SW7       30.07F
PRICE          MOSUNNY   78  22  12 VRB5      30.11F
RICHFIELD      SUNNY     81  25  12 N6          N/A
ROOSEVELT      SUNNY     79  27  14 E7        30.12F
VERNAL         SUNNY     78  30  17 NE6       30.12F

$$

UTZ013>016-019>022-027-300000-

SOUTHERN UTAH

CITY           SKY/WX    TMP DP  RH WIND       PRES   REMARKS
BRYCE CANYON   MOSUNNY   69  22  16 SW13      30.21F
CEDAR CITY     SUNNY     81  18   9 VRB3      30.07F
MILFORD        SUNNY     81  14   8 SW8       30.05F
ST GEORGE      PTCLDY    94  20   7 N8        29.86F
HANKSVILLE     SUNNY     86  21   9 NW7       30.02F
KANAB          SUNNY     86  14   7 N5        30.04F
BLANDING       MOSUNNY   80  23  12 SE3       30.17F

$$

REGIONAL REPORTS     COLORADO/ARIZONA

CITY           SKY/WX    TMP DP  RH WIND       PRES   REMARKS
CRAIG, CO      MOSUNNY   72  30  21 N8        30.19F
GRAND JUNCTION MOSUNNY   81  25  12 NW7       30.04F
RIFLE, CO      SUNNY     77  16  10 W8        30.09F
MONTROSE, CO   SUNNY     77  17  10 VRB5      30.11F
CORTEZ, CO     SUNNY     80  19  10 N8        30.10F
COLORADO CITY    N/A     90  25   9 CALM      30.04F
PAGE, AZ       SUNNY     88  18   7 MISG      29.98F
GRAND CANYON   MOSUNNY   77  19  11 NW7       30.14F
KINGMAN, AZ    PTSUNNY   93  25   8 S12G23    29.88F
FLAGSTAFF, AZ  MOSUNNY   73  20  13 CALM      30.14F

$$

REGIONAL REPORTS    NEVADA/IDAHO/WYOMING

CITY           SKY/WX    TMP DP  RH WIND       PRES   REMARKS
LAS VEGAS, NV  PTSUNNY   97  11   4 VRB5      29.79F HX  90
ELY, NY        MOSUNNY   79  28  15 N8        30.11F
ELKO, NV       SUNNY     83  23  11 MISG      30.07F
POCATELLO, ID  MOSUNNY   79  39  23 NW8       30.11F
BURLEY, ID     SUNNY     80  36  20 VRB6      30.06F
FORT BRIDGER,    N/A     70  27  19 N6        30.26F
EVANSTON, WY   MOSUNNY   70  30  22 N8        30.23F
ROCK SPRINGS,  MOSUNNY   65  29  25 E3        30.22F
KEMMERER, WY     N/A     64  32  29 NW7       30.26S

$$




USA.gov is the U.S. government's official web portal to all federal, state and local government web resources and services.